EW7158 Weather Reports


Display with metric or nautical units.
time (UTC)temp
F
wind
direction
speed
MPH
gust
MPH
rain 1hr
in
rain 24hr
in
rain mn
in
humidity
%
barometer
mb
20210727025637 70 270 0.0 0.0 0.00 0.00 0.00 61 1010.5
20210727024733 70 270 0.0 0.0 0.00 0.00 0.00 65 1010.5
20210727024652 70 270 0.0 0.0 0.00 0.00 0.00 67 1010.5
20210727023650 71 270 0.0 0.0 0.00 0.00 0.00 70 1010.5
20210727023532 71 270 0.0 0.0 0.00 0.00 0.00 69 1010.5
20210727022534 71 270 0.0 0.0 0.00 0.00 0.00 73 1010.5
20210727021548 72 270 0.0 0.0 0.00 0.00 0.00 73 1010.5
20210727020533 72 270 0.0 0.0 0.00 0.00 0.00 72 1010.5
20210727015535 73 270 0.0 0.0 0.00 0.00 0.00 75 1010.5
20210727014534 73 270 0.0 0.0 0.00 0.00 0.00 75 1010.5
20210727013534 74 270 0.0 0.0 0.00 0.00 0.00 75 1010.5
20210727012534 74 270 0.0 0.0 0.00 0.00 0.00 74 1010.9
20210727011550 75 270 0.0 0.0 0.00 0.00 0.00 73 1010.9
20210727010551 75 270 0.0 0.0 0.00 0.00 0.00 73 1010.9
20210727005535 75 270 0.0 0.0 0.00 0.00 0.00 73 1010.9
20210727004633 75 270 0.0 0.0 0.00 0.00 0.00 71 1010.9
20210727004534 75 270 0.0 0.0 0.00 0.00 0.00 71 1010.9
20210727003536 76 270 0.0 0.0 0.00 0.00 0.00 70 1010.9
20210727002534 76 270 0.0 0.0 0.00 0.00 0.00 68 1010.9
20210727001632 77 270 0.0 0.0 0.00 0.00 0.00 68 1011.0
20210727000648 77 270 0.0 0.0 0.00 0.00 0.00 68 1011.2
20210726235635 78 270 0.0 0.0 0.00 0.00 0.00 65 1011.2
20210726234635 78 270 0.0 0.0 0.00 0.00 0.00 63 1011.2
20210726233633 77 270 0.0 0.0 0.00 0.00 0.00 66 1011.2
20210726232635 77 270 0.0 0.0 0.00 0.00 0.00 68 1011.3
20210726231652 77 270 0.0 0.0 0.00 0.00 0.00 65 1011.5
20210726230633 77 270 0.0 1.0 0.00 0.00 0.00 65 1011.5
20210726225650 77 270 0.0 2.0 0.00 0.00 0.00 65 1011.5
20210726224734 77 345 0.0 0.0 0.00 0.00 0.00 66 1011.5
20210726224635 77 337 0.0 0.0 0.00 0.00 0.00 66 1011.6
20210726223733 77 270 0.0 0.0 0.00 0.00 0.00 67 1011.9
20210726222751 77 270 0.0 0.0 0.00 0.00 0.00 66 1011.9
20210726221735 78 270 0.0 0.0 0.00 0.00 0.00 66 1012.3
20210726220735 78 270 0.0 0.0 0.00 0.00 0.00 69 1012.3
20210726215733 77 270 0.0 0.0 0.00 0.00 0.00 71 1012.3
20210726214735 77 270 0.0 0.0 0.00 0.00 0.00 70 1012.3
20210726213735 77 270 0.0 0.0 0.00 0.00 0.00 70 1012.3
20210726212749 76 270 0.0 0.0 0.00 0.00 0.00 71 1012.3
20210726211734 75 360 0.0 0.0 0.00 0.00 0.00 71 1012.3
20210726211641 75 359 0.0 0.0 0.00 0.00 0.00 71 1012.3
20210726210635 75 270 0.0 2.0 0.00 0.00 0.00 71 1012.3
20210726205635 74 55 0.0 0.0 0.00 0.00 0.00 72 1012.3
20210726204732 74 45 0.0 0.0 0.00 0.00 0.00 72 1012.3
20210726203734 73 22 0.0 0.0 0.00 0.00 0.00 71 1012.3
20210726202735 73 67 0.0 0.0 0.00 0.00 0.00 71 1012.3
20210726201735 73 28 0.0 1.0 0.00 0.00 0.00 71 1012.6
20210726200734 72 45 0.0 0.0 0.00 0.00 0.00 71 1012.3
20210726195733 72 30 0.0 0.0 0.00 0.00 0.00 71 1012.3
20210726195634 72 45 0.0 0.0 0.00 0.00 0.00 71 1012.3
20210726194650 72 45 0.0 0.0 0.00 0.00 0.00 70 1012.3
20210726193748 71 26 0.0 0.0 0.00 0.00 0.00 64 1012.3
20210726192734 71 22 1.0 2.0 0.00 0.00 0.00 60 1012.3
20210726191750 70 43 1.0 2.0 0.00 0.00 0.00 57 1012.3
20210726190835 70 360 2.0 3.0 0.00 0.00 0.00 54 1012.3
20210726185932 69 8 2.0 4.0 0.00 0.00 0.00 56 1012.3
20210726184934 69 22 2.0 4.0 0.00 0.00 0.00 55 1012.3
20210726183933 69 357 1.0 2.0 0.00 0.00 0.00 50 1012.3
20210726183032 68 360 1.0 3.0 0.00 0.00 0.00 45 1012.3
20210726182033 67 22 1.0 2.0 0.00 0.00 0.00 30 1012.3
20210726181049 67 22 1.0 2.0 0.00 0.00 0.00 21 1012.3
20210726180132 66 22 1.0 2.0 0.00 0.00 0.00 13 1012.3
20210726175151 66 22 1.0 2.0 0.00 0.00 0.00 6 1012.3
20210726174234 65 22 2.0 3.0 0.00 0.00 0.00 100 1012.3
20210726173333 64 22 1.0 3.0 0.00 0.00 0.00 100 1012.3
20210726172349 64 360 1.0 4.0 0.00 0.00 0.00 100 1012.3
20210726171334 64 22 1.0 3.0 0.00 0.00 0.00 100 1012.3
20210726170432 64 22 1.0 2.0 0.00 0.00 0.00 100 1012.3
20210726165451 63 344 1.0 3.0 0.00 0.00 0.00 100 1012.3
20210726164434 62 33 1.0 2.0 0.00 0.00 0.00 100 1012.3
20210726163532 62 3 1.0 3.0 0.00 0.00 0.00 100 1012.3
20210726163452 62 360 1.0 2.0 0.00 0.00 0.00 100 1012.3
20210726162433 62 31 0.0 4.0 0.00 0.00 0.00 100 1012.3
20210726161434 61 61 1.0 2.0 0.00 0.00 0.00 100 1012.3
20210726161336 61 37 1.0 2.0 0.00 0.00 0.00 100 1012.3
20210726160432 61 90 1.0 2.0 0.00 0.00 0.00 100 1012.3
20210726155448 61 55 1.0 2.0 0.00 0.00 0.00 100 1012.3
20210726154543 61 67 1.0 2.0 0.00 0.00 0.00 100 1012.0
20210726153634 61 90 1.0 2.0 0.00 0.00 0.00 100 1011.9
20210726152732 60 86 1.0 2.0 0.00 0.00 0.00 100 1011.9
20210726151735 60 76 1.0 3.0 0.00 0.00 0.00 100 1011.9
20210726150833 60 67 1.0 2.0 0.00 0.00 0.00 100 1011.5
20210726145835 60 86 1.0 2.0 0.00 0.00 0.00 100 1011.5
20210726144833 59 59 1.0 2.0 0.00 0.00 0.00 100 1011.5
20210726143838 59 53 1.0 2.0 0.00 0.00 0.00 100 1011.5
20210726142834 59 67 1.0 2.0 0.00 0.00 0.00 100 1011.5
20210726141932 58 90 1.0 2.0 0.00 0.00 0.00 100 1011.2
20210726141032 58 90 1.0 2.0 0.00 0.00 0.00 100 1011.2
20210726140045 57 67 1.0 2.0 0.00 0.00 0.00 100 1011.2
20210726135034 56 90 1.0 2.0 0.00 0.00 0.00 100 1011.2
20210726134049 56 90 1.0 2.0 0.00 0.00 0.00 100 1011.2
20210726133133 57 22 0.0 0.0 0.00 0.00 0.00 100 1011.2
20210726132150 57 45 1.0 2.0 0.00 0.00 0.00 100 1011.2
20210726131132 57 90 1.0 2.0 0.00 0.00 0.00 100 1011.2
20210726130151 57 90 1.0 2.0 0.00 0.00 0.00 100 1011.2
20210726125235 57 90 1.0 2.0 0.00 0.00 0.00 100 1011.2
20210726124250 56 90 1.0 2.0 0.00 0.00 0.00 100 1011.2
20210726123233 56 67 0.0 1.0 0.00 0.00 0.00 100 1011.2
20210726122233 56 22 0.0 0.0 0.00 0.00 0.00 100 1011.2
20210726121234 56 22 0.0 0.0 0.00 0.00 0.00 100 1011.2
20210726121134 56 22 0.0 0.0 0.00 0.00 0.00 100 1011.2
20210726120232 56 45 0.0 0.0 0.00 0.00 0.00 100 1011.2
20210726115250 56 90 0.0 0.0 0.00 0.00 0.00 100 1011.2
20210726114233 56 90 0.0 0.0 0.00 0.00 0.00 100 1011.2
20210726113249 56 89 0.0 0.0 0.00 0.00 0.00 100 1011.2
20210726112335 56 67 0.0 0.0 0.00 0.00 0.00 100 1010.9
20210726111333 57 67 0.0 0.0 0.00 0.00 0.00 100 1010.9
20210726110334 57 90 0.0 2.0 0.00 0.00 0.00 100 1010.9
20210726105333 57 90 1.0 2.0 0.00 0.00 0.00 100 1010.9
20210726104333 57 90 1.0 2.0 0.00 0.00 0.00 100 1011.2
20210726102448 57 90 1.0 2.0 0.00 0.00 0.00 100 1011.2
20210726101434 57 85 1.0 3.0 0.00 0.00 0.00 100 1011.2
20210726100533 57 90 2.0 2.0 0.00 0.00 0.00 100 1011.2
20210726100436 57 90 1.0 2.0 0.00 0.00 0.00 100 1011.2
20210726095532 57 90 2.0 3.0 0.00 0.00 0.00 100 1011.2
20210726094531 57 90 1.0 2.0 0.00 0.00 0.00 100 1011.2
20210726093551 57 90 2.0 3.0 0.00 0.00 0.00 100 1011.2
20210726092633 57 90 2.0 3.0 0.00 0.00 0.00 100 1011.2
20210726091633 57 90 0.0 0.0 0.00 0.00 0.00 100 1011.2
20210726090649 57 67 0.0 0.0 0.00 0.00 0.00 100 1011.2
20210726085748 58 58 1.0 2.0 0.00 0.00 0.00 100 1011.2
20210726084833 58 90 1.0 2.0 0.00 0.00 0.00 100 1011.2
20210726083849 58 90 1.0 2.0 0.00 0.00 0.00 100 1011.2
20210726082933 58 90 1.0 2.0 0.00 0.00 0.00 100 1011.2
20210726081934 58 90 1.0 2.0 0.00 0.00 0.00 100 1011.2
20210726081032 59 90 1.0 2.0 0.00 0.00 0.00 100 1011.2
20210726080131 59 90 1.0 2.0 0.00 0.00 0.00 100 1011.2
20210726075148 59 90 1.0 2.0 0.00 0.00 0.00 100 1011.2
20210726075050 59 90 1.0 2.0 0.00 0.00 0.00 100 1011.2
20210726074034 59 90 1.0 2.0 0.00 0.00 0.00 100 1011.2
20210726073032 59 90 1.0 2.0 0.00 0.00 0.00 100 1011.2
20210726072033 59 90 1.0 2.0 0.00 0.00 0.00 100 1011.2
20210726071052 58 90 1.0 2.0 0.00 0.00 0.00 100 1011.2
20210726070134 58 270 1.0 2.0 0.00 0.00 0.00 100 1011.2
20210726065118 58 90 1.0 2.0 0.00 0.00 0.00 100 1011.2
20210726064118 58 90 0.0 2.0 0.00 0.00 0.00 100 1011.2
20210726063118 58 90 1.0 2.0 0.00 0.00 0.00 100 1011.5
20210726062119 58 90 0.0 0.0 0.00 0.00 0.00 100 1011.5
20210726061119 58 90 1.0 2.0 0.00 0.00 0.00 100 1011.5
20210726060138 59 90 2.0 3.0 0.00 0.00 0.00 100 1011.5
20210726060037 59 90 2.0 3.0 0.00 0.00 0.00 100 1011.5
20210726055118 59 90 1.0 2.0 0.00 0.00 0.00 100 1011.5
20210726054119 59 90 1.0 2.0 0.00 0.00 0.00 100 1011.5
20210726053133 60 90 2.0 2.0 0.00 0.00 0.00 100 1011.5
20210726052220 60 90 2.0 2.0 0.00 0.00 0.00 1 1011.9
20210726051318 60 90 2.0 3.0 0.00 0.00 0.00 4 1011.9
20210726050318 61 90 2.0 4.0 0.00 0.00 0.00 12 1011.9
20210726050218 61 90 2.0 3.0 0.00 0.00 0.00 11 1011.9
20210726045218 61 90 1.0 2.0 0.00 0.00 0.00 18 1011.9
20210726044219 62 90 1.0 2.0 0.00 0.00 0.00 25 1011.9
20210726043218 63 90 1.0 2.0 0.00 0.00 0.00 32 1011.9
20210726042219 63 90 1.0 2.0 0.00 0.00 0.00 38 1011.9
20210726041219 64 90 0.0 0.0 0.00 0.00 0.00 41 1011.9
20210726040236 65 90 0.0 0.0 0.00 0.00 0.00 48 1011.9
20210726035320 66 90 0.0 0.0 0.00 0.00 0.00 54 1011.9
20210726034319 67 90 0.0 0.0 0.00 0.00 0.00 57 1011.9
20210726033320 67 90 0.0 0.0 0.00 0.00 0.00 61 1011.9
20210726032320 68 90 0.0 0.0 0.00 0.00 0.00 66 1011.9
20210726031336 68 90 0.0 0.0 0.00 0.00 0.00 65 1011.9
20210726030421 68 90 0.0 0.0 0.00 0.00 0.00 65 1011.9
20210726030318 68 90 0.0 0.0 0.00 0.00 0.00 64 1011.9